This is the latest recevied weather packets stored in our database for station/object VK5KX. If no packets are shown the sender has not sent any weather packets the latest 10 day(s).
| Time | Temp. | Humidity | Pressure | Rain* | Wind** | Luminosity | Snow |
|---|---|---|---|---|---|---|---|
| 1778225457 | 16.67° C | 78% | 1029.2 hPa | 0 mm | - | - | - |
| 1778224556 | 16.67° C | 78% | 1029 hPa | 0 mm | - | - | - |
| 1778223656 | 16.67° C | 79% | 1029.1 hPa | 0 mm | - | - | - |
| 1778222756 | 17.22° C | 78% | 1029.1 hPa | 0 mm | - | - | - |
| 1778221858 | 17.22° C | 77% | 1029 hPa | 0 mm | - | - | - |
| 1778220953 | 17.78° C | 76% | 1029.1 hPa | 0.25 mm | - | - | - |
| 1778220066 | 17.78° C | 74% | 1029 hPa | 0.25 mm | - | - | - |
| 1778219198 | 17.78° C | 75% | 1029 hPa | 0.25 mm | - | - | - |
| 1778218254 | 17.78° C | 74% | 1029 hPa | 0.25 mm | - | - | - |
| 1778217353 | 17.78° C | 74% | 1029.1 hPa | 0 mm | - | - | - |
| 1778216449 | 17.78° C | 75% | 1029.1 hPa | 0 mm | - | - | - |
| 1778215545 | 17.22° C | 81% | 1029.2 hPa | 0 mm | - | - | - |
| 1778214642 | 16.67° C | 85% | 1029.4 hPa | 0.25 mm | - | - | - |
| 1778213743 | 16.67° C | 90% | 1029.5 hPa | 0.25 mm | - | - | - |
| 1778212839 | 16.11° C | 88% | 1029.7 hPa | 0.25 mm | - | - | - |
| 1778211946 | 16.67° C | 88% | 1029.8 hPa | 0.25 mm | - | - | - |
| 1778211036 | 16.67° C | 89% | 1030 hPa | 0 mm | - | - | - |
| 1778210136 | 16.67° C | 89% | 1030.1 hPa | 0 mm | - | - | - |
| 1778209234 | 16.11° C | 88% | 1030.3 hPa | 0 mm | - | - | - |
| 1778208333 | 16.11° C | 86% | 1030.6 hPa | 0.25 mm | - | - | - |
| 1778207431 | 16.11° C | 88% | 1030.7 hPa | 0.25 mm | - | - | - |
| 1778206529 | 16.11° C | 87% | 1031 hPa | 0.25 mm | - | - | - |
| 1778205629 | 16.11° C | 88% | 1031.2 hPa | 0.25 mm | - | - | - |
| 1778204736 | 16.11° C | 87% | 1031.2 hPa | 0 mm | - | - | - |
| 1778203824 | 15.56° C | 89% | 1031.5 hPa | 0 mm | - | - | - |
* Rain latest hour (hover to see other rain measurements)
** Current wind speed in m/s (hover to see current wind gust speed)